ECHOSTAR 19 (41893 NORAD) Tracking and Keplerian Element Data

This shows tracking and keplerian element data for the satellite.

Feedback or suggestion? Click here.




ElementValue
Catalog41893
NameECHOSTAR 19
Epoch Orbit2582
Epoch Day12.84990338
Epoch Year2024
RAAN58.9504
Inclination0.0153
Eccentricity0.0001133
Argument of Perigee234.9762
Mean Anonmoly26.7664
Mean Motion1.00270029
Decay Rate-1.29E-06
L11 41893U 16079A 24012.84990338 -.00000129 00000+0 00000+0 0 9992
L22 41893 0.0153 58.9504 0001133 234.9762 26.7664 1.00270029 25827



Live tracking and technical data element details for ECHOSTAR 19 (NORAD 41893). ECHOSTAR 19 can be tracked NOW for your location showing map with azimuth and elevation plus other details from your city location.







IsCatalogInMostPopularTable: catalog: 41893, numindb: 883
Update: records affected: 1



GetName: 41893 ECHOSTAR 19

Hit Count: updated at: Sat, 20 Apr 2024 09:43:59 GMT